Location: ????????
(54.8751°N, 38.5756°E)
Time: 11:27:25
(UTC+00:00)

Cosmos 1151 Rocket - Pass Details

Date: 14 April 2024
Orbit: 589 x 611 km, 82.5° (Epoch: 19 May)

Event Time Altitude Azimuth Distance (km) Brightness Sun altitude
Exits shadow 01:04:00 - 196° (SSW) 1,998 5.2 -11.2°
Reaches altitude 10° 01:04:08 10° 197° (SSW) 1,940 5.1 -11.2°
Maximum altitude 01:08:26 75° 282° (WNW) 631 3.0 -10.7°
Drops below altitude 10° 01:12:48 10° 9° (N) 1,970 6.3 -10.1°
Sets 01:15:02 0° 11° (NNE) 2,882 7.2 -9.9°
